Location: Marcellina
(42.0167°N, 12.8000°E)
Time: 19:58:49
(UTC+00:00)

Daily predictions for brighter satellites

Satellite Brightness Start Highest point End
(mag) Time Altitude Azimuth Time Altitude Azimuth Time Altitude Azimuth
Cosmos 1553 Rocket 4.4 18:38:19 10° SSE 18:44:00 42° E 18:49:47 10° NNE
Cosmos 2208 Rocket 4.2 18:40:39 10° NNW 18:46:04 68° ENE 18:51:29 10° SSE
FALCON 9 DEB 3.2 18:48:02 10° NW 18:51:01 55° NE 18:53:59 10° ESE
Cosmos 1689 Rocket 4.2 18:48:39 10° N 18:51:09 30° WNW 18:53:39 10° SW
Cosmos 841 Rocket 4.0 18:47:08 10° NNW 18:52:14 61° WSW 18:57:16 10° S
OBJECT-B 0.8 18:50:43 10° SSE 18:53:56 70° ENE 18:57:10 10° N
Cosmos 1437 Rocket 3.5 18:51:08 10° SSE 18:54:32 31° E 18:58:02 10° NNE
DELTA 2 R/B (1) 3.6 18:49:31 10° W 18:55:04 70° S 19:00:35 10° E
Resurs 01 Rocket 2.9 18:52:31 10° ESE 18:56:10 26° ENE 18:59:50 10° NNE
Cosmos 1603 4.3 18:50:54 10° NNW 18:56:28 57° WSW 19:01:56 10° S
FALCON 9 DEB 3.3 18:56:46 10° NW 18:59:45 51° NNE 19:02:29 12° ESE
Sich 1 4.3 18:59:12 10° NNE 19:02:48 25° ENE 19:06:02 12° SE
MOS 1 4.3 19:01:34 10° SSE 19:07:10 69° ENE 19:12:49 10° N
Lacrosse 5 rocket 4.2 19:10:43 10° WSW 19:12:00 11° WSW 19:13:18 10° SW
MOS 1-B Rocket 4.4 19:06:02 10° NNE 19:13:41 86° ESE 19:20:07 10° SSW
SJ-6B 3.4 19:14:36 10° S 19:18:23 56° W 19:22:15 10° NNW
Cosmos 1151 Rocket 4.3 19:21:15 16° SE 19:23:16 22° E 19:26:40 10° NE
Cosmos 2278 Rocket 3.9 19:23:59 12° E 19:24:20 12° E 19:26:36 10° ENE
SL-08 ROCKET BODY 4.3 19:20:33 10° N 19:26:29 88° E 19:32:19 10° S
Ariane Rocket 3.1 19:22:57 10° SSE 19:28:00 81° WSW 19:33:06 10° NNW
USA 290 3.5 19:26:04 10° N 19:28:54 27° ENE 19:30:10 21° ESE
Cosmos 1606 3.3 19:30:14 10° SSW 19:33:55 56° W 19:37:40 10° N
IRIS 3.6 19:31:39 10° W 19:34:02 76° S 19:35:32 25° E
FALCON 9 DEB 2.9 19:31:14 10° WNW 19:34:17 66° SW 19:35:41 28° SE
Cosmos 1844 Rocket 2.7 19:30:32 10° SSW 19:36:06 83° WNW 19:41:43 10° NNE
CZ-2C R/B 4.1 19:31:53 10° NNE 19:36:08 41° E 19:39:20 17° SSE
SPOT 1/Viking Rocket 4.2 19:36:10 20° SE 19:39:19 40° ENE 19:44:10 10° N
MetOp-B 4.4 19:36:53 19° SE 19:40:33 53° ENE 19:45:46 10° N
Cosmos 2084 4.4 19:41:37 25° ESE 19:41:46 25° ESE 19:45:11 10° ENE
SL-4 R/B 2.3 19:38:30 10° WNW 19:42:56 73° SW 19:45:35 25° SE
Cosmos 1805 Rocket 3.5 19:39:50 10° N 19:44:12 87° W 19:47:34 17° S
Cosmos 1354 Rocket 4.1 19:39:38 10° S 19:44:41 53° ESE 19:49:47 10° NNE
ARIANE 5 R/B 3.8 19:43:07 21° ESE 19:44:48 27° ENE 19:48:27 10° N
X-37B 1.4 19:42:47 10° WNW 19:45:53 47° N 19:47:53 19° ENE
Cosmos 1386 Rocket 4.4 19:40:01 10° N 19:46:03 84° E 19:51:19 14° S
Cosmos 836 Rocket 4.5 19:43:42 10° NNW 19:49:02 84° ENE 19:52:30 22° SSE
Milstar 3 4.4 19:39:28 10° SW 19:51:39 30° S 19:56:05 22° SE
Cosmos 1633 Rocket 3.6 19:48:30 10° N 19:52:41 41° ENE 19:54:17 29° SE
SPOT 3 Rocket 3.5 19:49:01 19° SSE 19:52:47 87° ENE 19:57:58 10° NNW
Cosmos 1437 4.5 19:54:17 17° ENE 19:54:17 17° ENE 19:55:23 10° NE
Cosmos 1745 Rocket 4.0 19:47:04 10° N 19:53:17 84° W 19:58:40 14° S
Landsat 7 3.7 19:52:36 23° SSE 19:55:36 81° ENE 20:00:23 10° N
Cosmos 1709 Rocket 4.0 19:50:06 10° N 19:56:09 60° E 19:59:47 25° SSE
Cosmos 1812 4.2 19:56:30 20° E 19:56:30 20° E 19:59:05 10° NE
Cosmos 1844 4.0 19:50:37 10° SSW 19:56:21 71° WNW 20:02:02 10° NNE
BREEZE-M DEB (TANK) 4.1 19:55:35 10° WNW 19:59:56 85° NNE 20:06:54 18° ESE
NOSS 3-3 (A) 3.9 19:55:45 10° SSW 20:01:12 55° ESE 20:07:22 10° NE
NOSS 3-3 (C) 3.9 19:55:51 10° SSW 20:01:19 55° ESE 20:07:27 10° NE
Cosmos 1328 Rocket 3.9 19:59:50 32° SE 20:01:23 46° E 20:05:38 10° NNE
ATLAS 5 CENTAUR R/B 2.6 19:56:30 10° NNW 20:02:08 62° NE 20:05:41 27° ESE
IGS 5A 3.7 20:04:30 24° S 20:06:54 64° W 20:11:01 10° NNW
Meteor 1-26 Rocket 4.1 20:02:17 15° S 20:07:04 75° E 20:12:39 10° NNE
CARTOSAT-1 4.1 20:07:01 34° ESE 20:08:11 43° ENE 20:12:16 10° N
Cosmos 2315 Rocket 4.0 20:04:40 17° S 20:09:40 73° E 20:16:02 10° NNE
CRYOSAT 2 4.3 20:07:54 30° SSE 20:10:18 74° E 20:15:12 10° N
Cosmos 1833 Rocket 3.8 20:06:44 10° N 20:11:44 31° NE 20:14:00 23° E
BREEZE-M R/B 3.7 20:11:03 10° W 20:13:20 29° NNW 20:15:12 13° NE
Cosmos 1666 4.3 20:14:47 10° NNE 20:17:20 21° ENE 20:17:20 21° ENE
Cosmos 1666 Rocket 3.5 20:13:54 10° N 20:18:19 83° W 20:19:58 38° S
Meteor 2-17 Rocket 4.5 20:15:17 10° N 20:21:29 83° W 20:25:05 27° S
USA 245 3.9 20:23:48 30° NNW 20:23:48 30° NNW 20:25:06 10° NNW
Iridium 4 Rocket 4.3 20:22:03 35° ESE 20:23:31 41° E 20:29:00 10° NNE
Cosmos 1242 Rocket 3.9 20:24:04 15° SW 20:26:39 37° WNW 20:30:00 10° N
Cosmos 783 Rocket 4.4 20:22:29 10° NNW 20:27:46 82° ENE 20:29:28 44° SSE
Resurs 01 Rocket 3.2 20:29:42 16° SSW 20:32:32 30° W 20:36:29 10° NW
BREEZE M DEB (TANK) 3.5 20:30:10 10° WNW 20:33:29 24° N 20:34:07 22° NNE
Cosmos 773 Rocket 4.0 20:30:16 10° NNW 20:35:36 76° ENE 20:37:01 49° SE
Spot 2 Rocket 3.4 20:34:12 43° S 20:35:55 83° WSW 20:41:00 10° NNW
SJ 16-02 2.3 20:38:19 32° ENE 20:38:19 32° ENE 20:41:25 10° NE
Cosmos 2228 Rocket 4.4 20:40:06 26° ENE 20:40:06 26° ENE 20:43:01 10° NNE
DELTA 2 R/B (1) 3.9 20:35:56 10° W 20:41:13 46° SSW 20:41:51 44° S
COSMOS 2406 3.5 20:36:44 10° NNW 20:42:17 52° ENE 20:43:43 42° ESE
Meteor 2-6 Rocket 4.1 20:41:13 49° SSE 20:42:31 66° E 20:47:57 10° NNE
Cosmos 2082 Rocket 3.4 20:40:04 10° N 20:44:57 29° NE 20:46:28 26° E
Cosmos 1782 4.0 20:43:16 25° SW 20:45:08 40° WNW 20:48:55 10° N
Cosmos 1500 3.2 20:43:31 10° NNW 20:47:10 74° WNW 20:47:10 74° WNW
CZ-4C R/B 3.2 20:40:24 10° NNW 20:47:41 65° NE 20:51:18 36° ESE
ERS-1 Rocket 2.9 20:50:52 59° SSE 20:51:51 89° WSW 20:56:55 10° NNW
SPOT 5 2.9 20:52:52 60° S 20:53:50 88° W 20:59:04 10° NNW
H-2A R/B 3.6 20:54:07 10° NNE 20:57:49 63° NE 20:57:49 63° NE
Cosmos 1271 Rocket 3.5 21:00:22 44° NE 21:00:22 44° NE 21:03:20 10° NNE
Cosmos 1777 Rocket 4.2 20:58:39 33° SW 21:00:58 69° WNW 21:06:11 10° NNE
Meteor 1-11 Rocket 4.1 20:56:00 10° N 21:01:51 52° ENE 21:02:44 48° ESE
Terra 1.6 21:02:23 76° SE 21:02:40 81° ENE 21:07:27 10° N
Cosmos 2278 Rocket 2.1 21:05:44 45° SSW 21:07:34 87° WNW 21:13:16 10° NNE
USA 307 4.4 21:06:46 10° NW 21:10:35 30° NNE 21:11:25 28° NE
Cosmos 1515 Rocket 4.4 21:17:35 41° WSW 21:18:16 44° WNW 21:22:30 10° N
ARIANE 5 R/B 4.1 21:20:40 26° WSW 21:21:11 27° W 21:24:54 10° NW
X-37B 3.4 21:19:28 10° WNW 21:20:09 15° WNW 21:20:09 15° WNW
Meteor 1-10 Rocket 4.3 21:22:59 56° SW 21:24:06 72° WNW 21:29:44 10° N
USA 308 4.1 21:20:11 10° NW 21:24:09 35° NNE 21:24:24 35° NE
Cosmos 1869 Rocket 4.1 21:20:28 10° N 21:23:54 50° NNE 21:23:54 50° NNE
Cosmos 1536 4.0 21:21:01 10° N 21:23:48 38° NNE 21:23:48 38° NNE
Cosmos 1943 Rocket 3.8 21:30:26 21° ENE 21:30:26 21° ENE 21:32:58 10° NE
Cosmos 2154 Rocket 3.8 21:25:52 10° N 21:32:14 84° E 21:33:02 69° SSE
Cosmos 990 Rocket 4.5 21:40:01 50° ENE 21:40:01 50° ENE 21:44:09 10° NNE
Cosmos 2184 Rocket 4.3 21:34:04 10° NNW 21:40:10 58° W 21:41:19 50° SW
NOSS 3-4 (A) 3.9 21:38:15 10° NNW 21:45:21 77° NE 21:47:02 57° ESE
NOSS 3-4 (C) 3.9 21:38:22 10° NNW 21:45:27 77° NE 21:47:09 57° ESE
ATLAS 5 CENTAUR R/B 3.8 21:41:43 10° WNW 21:46:38 27° WSW 21:47:13 26° WSW
Cosmos 962 Rocket 4.4 21:45:32 10° N 21:51:39 69° E 21:51:48 69° E
Nadezhda 1 Rocket 4.2 21:51:52 54° SW 21:53:04 64° W 21:59:19 10° N
Cosmos 2112 Rocket 4.4 21:48:53 10° NNW 21:53:50 55° NE 21:53:50 55° NE
Cosmos 1833 Rocket 3.4 21:50:29 10° NW 21:55:42 40° WSW 21:55:42 40° WSW
Cosmos 1238 Rocket 4.1 21:51:50 10° N 21:57:51 54° ENE 21:57:51 54° ENE
ATLAS 2AS CENTAUR R/B 3.1 21:51:43 10° NNW 21:58:59 58° NE 22:00:32 48° E
USA 215 4.4 21:55:02 17° E 21:59:36 39° NNE 22:05:33 10° NW
Cosmos 2297 4.0 22:03:57 56° ENE 22:03:57 56° ENE 22:08:38 10° NNE
USA 305 4.4 22:02:05 10° NW 22:04:41 35° NW 22:04:41 35° NW
Cosmos 2181 Rocket 4.1 22:07:22 61° E 22:07:22 61° E 22:13:08 10° NNE
SJ 16-02 3.4 22:15:15 21° WNW 22:16:00 22° WNW 22:19:27 10° N
Cosmos 1733 Rocket 4.3 22:13:18 10° N 22:16:02 38° N 22:16:02 38° N
Cosmos 1680 Rocket 3.9 22:17:01 10° NNW 22:21:27 59° NW 22:21:27 59° NW
Cosmos 1937 Rocket 4.0 22:24:06 54° NNE 22:24:06 54° NNE 22:28:04 10° NNE
Cosmos 2341 Rocket 3.9 22:16:37 10° N 22:23:01 78° W 22:23:08 78° WSW
Cosmos 2366 rocket 4.0 22:18:05 10° N 22:24:07 69° ENE 22:24:07 69° ENE
Cosmos 967 Rocket 4.4 22:27:43 82° NE 22:27:43 82° NE 22:33:44 10° NNE
Cosmos 1818 4.3 22:22:19 10° NNW 22:27:35 44° NE 22:27:40 44° NE
Cosmos 2082 Rocket 3.0 22:23:53 10° NW 22:28:19 40° W 22:28:19 40° W
CZ-4C R/B 3.9 22:29:27 10° NW 22:36:09 34° WSW 22:36:28 33° WSW
Meteor 1-19 Rocket 4.4 22:40:49 64° NNW 22:40:49 64° NNW 22:45:25 10° N
Terra 4.4 22:41:15 10° W 22:41:15 10° W 22:41:51 10° WNW
Cosmos 2218 Rocket 3.9 22:35:58 10° N 22:42:06 83° WNW 22:42:06 83° WNW
Cosmos 489 Rocket 4.4 22:43:20 10° NNW 22:49:22 80° NE 22:49:22 80° NE
Nadezhda 3 Rocket 4.2 23:02:11 59° ENE 23:02:11 59° ENE 23:07:59 10° NNE
Cosmos 2369 Rocket 2.5 23:03:27 59° NE 23:03:27 59° NE 23:08:02 10° NNE
RESURS DK-1 4.4 23:07:16 10° N 23:09:53 25° NNE 23:09:53 25° NNE
Cosmos 1943 Rocket 2.8 23:11:55 47° WNW 23:11:55 47° WNW 23:17:19 10° NNE
ALOS 2 4.5 23:16:05 25° NW 23:16:05 25° NW 23:18:13 10° NNW
Cosmos 1867 4.4 23:18:57 45° ENE 23:18:57 45° ENE 23:22:51 10° NE
Cosmos 1607 4.1 23:19:25 64° E 23:19:25 64° E 23:25:14 10° NE
SL-08 R/B 4.5 23:13:45 10° N 23:19:37 74° WNW 23:19:37 74° WNW
Meteor 2-4 Rocket 4.1 23:20:31 60° NW 23:20:31 60° NW 23:25:40 10° N
Cosmos 2263 4.4 23:22:38 66° NE 23:22:38 66° NE 23:27:37 10° NNE
ATLAS CENTAUR R/B 3.9 23:33:01 14° NE 23:33:01 14° NE 23:33:41 10° NE
Cosmos 1125 Rocket 4.1 23:35:51 53° NE 23:35:51 53° NE 23:39:56 10° NNE
Cosmos 1656 Rocket 3.9 23:39:03 66° N 23:39:03 66° N 23:43:47 10° NNE
SeaSat 1 3.1 23:34:09 10° NNE 23:38:19 50° NNW 23:38:19 50° NNW
Cosmos 494 Rocket 4.5 23:35:48 10° NNW 23:40:14 57° NNE 23:40:14 57° NNE
USA 215 3.1 23:42:21 79° SW 23:42:21 79° SW 23:48:50 10° NW
Cosmos 2239 Rocket 4.4 23:38:43 10° N 23:44:52 78° WNW 23:44:52 78° WNW
Cosmos 1833 4.3 23:42:08 10° NNW 23:47:33 75° NNE 23:47:33 75° NNE
ATLAS 2AS CENTAUR R/B 3.9 23:43:25 10° NW 23:47:56 28° W 23:47:56 28° W
CZ-2D R/B 3.6 23:49:21 10° NE 23:53:50 26° E 23:53:55 26° E
